FW3337 Weather Reports


Display with metric or nautical units.
time (UTC)temp
F
wind
direction
speed
MPH
gust
MPH
rain 1hr
in
rain 24hr
in
rain mn
in
humidity
%
barometer
mb
20260505060038 46 193 0.0 0.0 0.00 0.00 0.00 89 1009.6
20260505054546 46 193 0.0 0.0 0.00 0.00 0.00 89 1009.8
20260505053035 46 193 0.0 0.0 0.00 0.00 0.00 88 1009.7
20260505051533 47 193 0.0 0.0 0.00 0.00 0.00 88 1009.9
20260505041525 48 193 0.0 0.0 0.00 0.00 0.00 84 1010.1
20260505040023 49 193 0.0 0.0 0.00 0.00 0.00 82 1010.0
20260505034526 50 193 0.0 0.0 0.00 0.00 0.00 81 1010.0
20260505033022 50 193 0.0 0.0 0.00 0.00 0.00 80 1010.0
20260505031521 51 193 0.0 0.0 0.00 0.00 0.00 78 1010.2
20260505030037 52 193 0.0 0.0 0.00 0.00 0.00 76 1010.2
20260505024521 52 193 0.0 0.0 0.00 0.00 0.00 75 1010.2
20260505023020 54 193 0.0 0.0 0.00 0.00 0.00 71 1010.1
20260505021522 55 193 0.0 0.0 0.00 0.00 0.00 68 1010.1
20260505020020 56 193 0.0 0.0 0.00 0.00 0.00 66 1010.1
20260505014522 57 193 0.0 0.0 0.00 0.00 0.00 64 1009.8
20260505013020 59 193 0.0 0.0 0.00 0.00 0.00 61 1009.8
20260505011517 61 193 0.0 0.0 0.00 0.00 0.00 57 1009.6
20260505010016 63 193 0.0 0.0 0.00 0.00 0.00 52 1009.4
20260505004529 64 193 0.0 0.0 0.00 0.00 0.00 47 1009.2
20260505003014 66 193 1.0 4.0 0.00 0.00 0.00 44 1009.0
20260505001515 67 193 1.0 4.0 0.00 0.00 0.00 43 1008.7
20260505000016 68 216 1.0 4.0 0.00 0.00 0.00 41 1008.5
20260504234518 68 217 2.0 4.0 0.00 0.00 0.00 40 1008.2
20260504233017 69 259 2.0 10.0 0.00 0.00 0.00 39 1007.9
20260504231511 69 211 3.0 9.0 0.00 0.00 0.00 38 1007.8
20260504230011 70 216 3.0 10.0 0.00 0.00 0.00 37 1007.7
20260504224511 70 231 2.0 10.0 0.00 0.00 0.00 37 1007.6
20260504223011 71 197 2.0 9.0 0.00 0.00 0.00 36 1007.6
20260504221509 71 210 2.0 8.0 0.00 0.00 0.00 36 1007.7
20260504220007 71 272 3.0 10.0 0.00 0.00 0.00 35 1007.9
20260504214505 72 228 3.0 10.0 0.00 0.00 0.00 34 1008.0
20260504213013 72 210 2.0 9.0 0.00 0.00 0.00 33 1008.0
20260504211503 72 212 4.0 10.0 0.00 0.00 0.00 33 1008.0
20260504210002 72 199 3.0 12.0 0.00 0.00 0.00 33 1008.2
20260504204502 71 50 3.0 10.0 0.00 0.00 0.00 34 1008.1
20260504203101 71 220 3.0 11.0 0.00 0.00 0.00 34 1008.2
20260504201607 72 235 3.0 9.0 0.00 0.00 0.00 32 1008.3
20260504194604 72 256 4.0 10.0 0.00 0.00 0.00 33 1008.7
20260504193055 72 210 2.0 6.0 0.00 0.00 0.00 34 1008.6
20260504191610 71 189 4.0 10.0 0.00 0.00 0.00 33 1008.7
20260504190049 71 196 4.0 11.0 0.00 0.00 0.00 33 1008.9
20260504184555 71 216 3.0 10.0 0.00 0.00 0.00 33 1009.2
20260504183045 70 289 2.0 14.0 0.00 0.00 0.00 33 1009.3
20260504181542 70 164 3.0 13.0 0.00 0.00 0.00 33 1009.5
20260504180040 70 218 2.0 13.0 0.00 0.00 0.00 36 1009.8
20260504174537 69 218 4.0 11.0 0.00 0.00 0.00 35 1009.9
20260504173038 68 245 5.0 12.0 0.00 0.00 0.00 34 1010.2
20260504171534 68 186 5.0 11.0 0.00 0.00 0.00 34 1010.3
20260504081505 34 267 0.0 0.0 0.00 0.00 0.00 92 1012.9